{"data":{"norad_id":68868,"intl_designator":"2026-095E","name":"KUIPER-00375","alt_names":[],"object_type":"PAYLOAD","status":"ACTIVE","operator":null,"country":"US","launch_date":"2026-04-28","launch_site_code":"AFETR","launch_vehicle":null,"mission":null,"orbit_class":"UNKNOWN","rcs_meters":null,"size_class":null,"mass_kg":null,"dimensions":null,"purposes":[],"wikipedia_slug":null,"has_3d_model":false,"image_url":null,"decayed_at":null,"tle_current":{"epoch":"2026-05-24T23:48:55.576224Z","epoch_age_seconds":71743,"freshness":"FRESH","line1":"1 68868U 26095E   26144.99230991  .00028014  00000+0  72759-3 0  9994","line2":"2 68868  51.8849 354.3395 0001431 219.6202 140.4681 15.38744475  4169","mean_motion":15.38744475,"eccentricity":0.0001431,"inclination_deg":51.8849,"raan_deg":354.3395,"arg_perigee_deg":219.6202,"mean_anomaly_deg":140.4681,"bstar":0.00072759,"rev_number":416,"period_min":93.582789306197,"perigee_km":448.84385501668,"apogee_km":450.7980165779,"semimajor_km":6827.9579357973,"source":"CELESTRAK","updated_at":"2026-05-25T13:38:08.646108Z"}}}